Location: Tyler Bend Campground
(35.9875°N, 92.7606°W)
Time: 11:26:21
(UTC-05:00)

CZ-2C R/B - Visible Passes

Search period start: 23 May 2015 00:00
Search period end: 02 June 2015 00:00
Orbit: 669 x 785 km, 98.1° (Epoch: 23 May)

Date Brightness Start Highest point End Pass type
(mag) Time Alt. Az. Time Alt. Az. Time Alt. Az.
23 May 4.8 20:45:09 10° SSW 20:49:29 26° W 20:53:42 10° NW visible
25 May 4.9 20:48:06 10° SSW 20:52:19 24° W 20:56:23 10° NW visible
27 May 5.0 20:51:03 10° SW 20:55:08 22° W 20:59:03 10° NW visible
29 May 5.1 20:54:02 10° SW 20:57:57 21° W 21:01:42 10° NW visible
31 May 5.1 20:57:02 10° SW 21:00:47 19° W 21:04:19 10° NW visible
